Location: Berkeley
(37.8716°N, 122.2727°W)
Time: 18:10:24
(UTC-07:00)

BlueWalker 3 - Pass Details

Date: 19 May 2026
Orbit: 447 x 456 km, 53.2° (Epoch: 10 June)

Event Time Altitude Azimuth Distance (km) Brightness Sun altitude
Rises 04:25:08 0° 323° (NW) 2,447 5.5 -15.7°
Reaches altitude 10° 04:28:04 10° 350° (N) 1,575 4.9 -15.2°
Maximum altitude 04:30:03 14° 24° (NNE) 1,336 5.1 -14.9°
Drops below altitude 10° 04:32:03 10° 59° (ENE) 1,574 5.8 -14.6°
Sets 04:34:58 0° 85° (E) 2,446 6.4 -14.2°
